Location: Unspecified
(0.0000°N, 0.0000°E)
Time: 23:03:30
(UTC+00:00)

NTS 1 - Pass Details

Date: 11 June 2023
Orbit: 13478 x 13741 km, 124.8° (Epoch: 24 September)

Event Time Altitude Azimuth Distance (km) Brightness Sun altitude
Rises 22:33:27 0° 84° (E) 19,075 ? -58.8°
Reaches altitude 10° 22:47:37 10° 93° (E) 18,001 ? -61.0°
Maximum altitude 23:39:24 35° 150° (SSE) 15,776 ? -66.4°
Enters shadow 23:43:43 34° 156° (SSE) 15,790 ? -66.6°
Exits shadow 23:47:02 34° 161° (SSE) 15,826 ? -66.7°
Drops below altitude 10° 00:29:14 10° 203° (SSW) 17,914 ? -65.8°
Sets 00:42:05 0° 210° (SSW) 18,972 ? -64.7°
